Regional Weather Roundup
Issued by NWS

Home | Current Version | Previous Version | Text Only | Print | Product List | Glossary Off
Versions: 1 2 3 4 5 6 7 8 9 10 11 12 13 14 15 16 17 18 19 20 21 22 23 24 25 26 27 28 29 30 31 32 33 34 35 36 37 38 39 40 41 42 43 44 45 46 47 48 49 50

102
ASUS43 KIND 300709
RWRIN

WEATHER ROUNDUP FOR INDIANA
NATIONAL WEATHER SERVICE INDIANAPOLIS IN
300 AM EDT TUE MAY 30 2017

NOTE: "FAIR" INDICATES FEW OR NO CLOUDS BELOW 12,000 FEET WITH NO
SIGNIFICANT WEATHER AND/OR OBSTRUCTIONS TO VISIBILITY.

* - STATION DOES NOT REPORT WEATHER SUCH AS PRECIPITATION OR FOG.

+ - STATION NOT QUALITY CONTROLLED BY THE NATIONAL WEATHER SERVICE.
    USE DATA WITH CAUTION...ESPECIALLY DEWPOINT AND RELATIVE
    HUMIDITY OBSERVATIONS.

INZ001>003-010>013-019-020-300800-
NORTHWEST INDIANA

CITY           SKY/WX    TMP DP  RH WIND       PRES   REMARKS
GARY /AIRPORT/ CLEAR     60  46  59 SW5       29.92R
KNOX *+        CLEAR     54  36  50 SW6       29.92S
LA PORTE +     PTCLDY    57  46  67 W3        29.92S
MICHIGAN CITY+ PTCLDY    52  50  93 CALM      29.92S
MONTICELLO +   CLEAR     56  51  83 SW6       29.93S
RENSSELAER +   CLEAR     59  43  55 SW5       29.94S
VALPARAISO     PTCLDY    58  47  66 SW6       29.92S

$$

LMZ046-743>745-300800-
SOUTHERN LAKE MICHIGAN

STATION/POSITION TIME  TEMP    WIND        PRES    WAVE
                       AIR SEA DIR/SP/G            HT
                 (UTC) (F)     (DEG/KT/KT) (MB)    (FT)
BURNS HARBOR     0640   61      CALM  /  2 1013.2S
MICHIGAN CITY    0640   59     140/  3/  4   N/A
5NW MICH CITY    0700   57 56  180/  4/  6   N/A     1

$$

INZ004-005-014>016-021>024-300800-
NORTH CENTRAL INDIANA

CITY           SKY/WX    TMP DP  RH WIND       PRES   REMARKS
GOSHEN         CLEAR     56  49  77 S3        29.91S
PERU/GRISSOM   CLEAR     55  54  96 SW8       29.93S
ROCHESTER +    CLEAR     61  48  63 SW5       29.93S
SOUTH BEND     PTCLDY    54  46  74 CALM      29.91S
WARSAW +       CLEAR     54  48  82 CALM      29.92S

$$

INZ006>009-017-018-025>027-300800-
NORTHEAST INDIANA

CITY           SKY/WX    TMP DP  RH WIND       PRES   REMARKS
ANGOLA *+      CLEAR     52  52 100 CALM      29.91S
AUBURN +       PTCLDY    57  48  72 CALM      29.93S
FORT WAYNE     MOCLDY    59  53  80 SW8       29.93S
HUNTINGTON +   PTCLDY    59  56  90 S3        29.93S
KENDALLVILLE + CLEAR     55  49  81 CALM      29.92S

$$

INZ028-029-035-036-043>045-051>053-300800-
WEST CENTRAL INDIANA

CITY           SKY/WX    TMP DP  RH WIND       PRES   REMARKS
CRAWFORDSVL +  CLEAR     55  55 100 CALM      29.96S
GREENCASTLE +  CLEAR     54  54 100 CALM      29.98S
LAFAYETTE      PTCLDY    54  54 100 CALM      29.94S
TERRE HAUTE    CLEAR     58  52  80 CALM      29.97S

$$

INZ030>032-037>040-046>048-054>057-064-065-300800-
CENTRAL INDIANA

CITY           SKY/WX    TMP DP  RH WIND       PRES   REMARKS
CP ATTERBURY + MOCLDY    55  54  94 SW5       29.98R
FISHERS *+     CLOUDY    57  57 100 CALM      29.96S
FRANKFORT +    MOCLDY    61  53  76 SW5       29.97S
GREENWOOD *+   PTCLDY    60  57  89 CALM      29.97S
INDIANAPOLIS   MOCLDY    61  55  81 SW6       29.96S
-EAGLE CREEK   MOCLDY    62  55  77 CALM      29.96R
KOKOMO +       CLEAR     57  53  86 SW5       29.95S
MT COMFORT *+    N/A    N/A N/A N/A MISG        N/A
SHELBYVILLE    PTCLDY    61  54  77 S3        29.96R
ZIONSVILLE +   PTCLDY    57  54  88 W5        29.96S

$$

INZ033-034-041-042-049-050-058-059-300800-
EAST CENTRAL INDIANA

CITY           SKY/WX    TMP DP  RH WIND       PRES   REMARKS
MUNCIE         CLOUDY    61  58  90 CALM      29.95S

$$

INZ060-061-067>069-081>083-085>088-300800-
SOUTHWEST INDIANA

CITY           SKY/WX    TMP DP  RH WIND       PRES   REMARKS
EVANSVILLE     MOCLDY    62  58  86 CALM      30.02R
HUNTINGBURG *+ MOCLDY    62  56  80 S3        30.02R
WASHINGTON +   PTCLDY    62  53  71 S3        29.99F

$$

INZ062-063-066-070>080-084-089>092-300800-
SOUTH CENTRAL AND SOUTHEAST INDIANA

CITY           SKY/WX    TMP DP  RH WIND       PRES   REMARKS
BEDFORD +      CLEAR     63  48  59 SW3       29.99S
BLOOMINGTON    MOCLDY    63  51  65 SW5       29.99R
MADISON *+     PTCLDY    64  55  72 W5        30.00S
NORTH VERNON + PTCLDY    61  55  82 SW5       29.98R
SEYMOUR +      CLEAR     63  54  72 W9        29.98R

$$





USA.gov is the U.S. government's official web portal to all federal, state and local government web resources and services.